#timestamp,LO_Frequency,Hit,StdDev 
1635717615.3,286046998.7,N
1635717635.1,286047001.2,N
1635717636.0,286047001.2,N
1635717655.8,286046998.2,N
1635717675.7,286046998.9,N
1635717695.5,286047001.0,N
1635717715.3,286046999.4,N
1635717735.2,286046999.0,N
1635717755.9,286046999.6,N
1635717775.7,286046998.0,N
1635717795.6,286046997.1,N
1635717815.4,286046997.8,N
1635717835.2,286046997.5,N
1635717855.1,286046995.2,Y
1635717856.0,286046995.2,P
1635717875.8,286046996.6,N
1635717895.6,286046999.1,N
1635717915.5,286046998.5,N
1635717935.3,286046997.1,N
1635717955.1,286046997.1,N
1635717975.9,286046999.2,N
1635717995.7,286046999.5,N
1635718015.5,286046997.1,N
1635718035.3,286046997.3,N
1635718055.2,286046997.4,N
1635718075.0,286046999.0,N
1635718075.9,286046999.0,N
1635718095.8,286046999.4,N
1635718115.6,286046996.9,N
1635718135.4,286046996.5,N
1635718155.2,286046999.0,N
1635718175.1,286046999.5,N
1635718176.0,286046999.5,N
1635718195.8,286046997.7,N
1635718215.7,286046998.0,N
1635718235.5,286046996.9,N
1635718255.3,286046996.5,N
1635718275.1,286046998.8,N
1635718295.9,286046997.4,N
1635718315.7,286046995.6,Y
1635718335.6,286046998.2,P
1635718355.4,286046999.0,P
1635718375.2,286046998.4,P
1635718395.1,286046998.7,Y
1635718396.0,286046998.7,P
1635718415.8,286047000.4,N
1635718435.6,286047000.0,N
1635718455.5,286046999.9,N
1635718475.3,286047000.4,N
1635718495.1,286046999.9,N
1635718515.9,286046999.7,N
1635718535.7,286047001.0,N
1635718555.5,286047000.3,N
1635718575.4,286047002.4,Y
1635718595.2,286047000.2,P
1635718615.0,286047001.2,P
1635718615.9,286047001.2,N
1635718635.8,286047000.6,N
1635718655.6,286047000.9,N
1635718675.4,286047000.4,N
1635718695.3,286047000.0,N
1635718715.1,286047000.5,N
1635718716.0,286047000.5,N
1635718735.8,286047001.2,N
1635718755.7,286046998.1,Y
1635718775.5,286046996.6,P
1635718795.3,286046997.8,N
1635718815.2,286046996.5,N
1635718835.9,286046997.1,N
1635718855.7,286046996.6,N
1635718875.5,286046999.3,N
1635718895.4,286046997.1,N
1635718915.2,286046998.8,N
1635718935.0,286046999.6,N
1635718935.9,286046999.6,N
1635718955.8,286046997.5,N
1635718975.6,286046996.6,N
1635718995.4,286046997.0,N
1635719015.3,286046996.7,N
1635719035.1,286046996.7,N
1635719055.8,286046997.0,N
1635719075.7,286046998.7,N
1635719095.5,286047001.0,N
1635719115.3,286046998.2,N
1635719135.2,286046999.5,N
1635719155.0,286046994.9,Y
1635719155.9,286046994.9,P
1635719175.7,286047001.1,N
1635719195.6,286047000.9,N
1635719215.4,286047000.7,N
1635719235.2,286047000.7,N
1635719255.1,286047001.1,N
1635719256.0,286047001.1,N
1635719275.8,286046999.9,N
1635719295.6,286047000.3,N
1635719315.5,286046999.7,N
1635719335.3,286047002.7,N
1635719355.1,286046999.9,N
1635719375.9,286046999.8,N
1635719395.7,286046998.7,N
1635719415.5,286046999.2,N
1635719435.4,286047000.8,N
1635719455.2,286047001.2,N
1635719475.0,286047000.5,N
1635719475.9,286047000.5,N
1635719495.8,286047000.8,N
1635719515.6,286047000.3,N
1635719535.4,286047000.3,N
1635719555.3,286047002.8,N
1635719575.1,286047004.4,N
1635719576.0,286047004.4,N
1635719595.8,286047002.3,N
1635719615.7,286047000.0,N
1635719635.5,286046999.7,N
1635719655.3,286047000.5,N
1635719675.2,286046998.4,N
1635719695.9,286046999.6,N
1635719715.7,286046998.9,N
1635719735.6,286046997.1,N
1635719755.4,286046998.3,N
1635719775.2,286046998.8,N
1635719795.1,286046998.3,N
1635719796.0,286046998.3,N
1635719815.8,286046999.4,N
1635719835.6,286046999.0,N
1635719855.5,286046996.7,N
1635719875.3,286046996.6,N
1635719895.1,286046999.1,N
1635719915.9,286046999.2,N
1635719935.7,286046997.1,N
1635719955.5,286046996.8,N
1635719975.4,286046996.8,N
1635719995.2,286046996.7,N
1635720015.0,286046997.8,N
1635720015.9,286046997.8,N
1635720035.8,286046996.6,N
1635720055.6,286046997.2,N
1635720075.4,286046997.8,N
1635720095.3,286046996.9,N
1635720115.1,286046996.9,N
1635720116.0,286046996.9,N
1635720135.8,286046998.9,N
1635720155.7,286046998.5,N
1635720175.5,286046998.8,N
1635720195.3,286046997.4,N
1635720215.2,286046997.8,N
1635720235.9,286046995.2,Y
1635720255.7,286046996.8,P
1635720275.6,286046998.7,N
1635720295.4,286046998.7,N
1635720315.2,286046998.3,N
1635720335.1,286046998.6,N
1635720336.0,286046998.6,N
1635720355.8,286046998.9,N
1635720375.6,286046996.5,Y
1635720395.5,286047000.0,P
1635720415.3,286046999.7,N
1635720435.1,286047001.1,N
1635720455.9,286046998.1,N
1635720475.7,286046998.6,N
1635720495.5,286047000.8,N
1635720515.4,286046996.6,Y
1635720535.2,286046999.4,P
1635720555.0,286046999.3,P
1635720555.9,286046999.3,P
1635720575.8,286046999.4,Y
1635720595.6,286047000.6,P
1635720615.4,286047000.6,N
1635720635.3,286047000.6,N
1635720655.1,286047000.6,N
1635720675.8,286047000.7,N
1635720695.7,286046999.9,N
1635720715.5,286047002.3,Y
1635720735.3,286046999.7,P
1635720755.2,286046999.8,N
1635720775.0,286046998.5,P
1635720775.9,286046998.5,N
1635720795.7,286046998.8,N
1635720815.6,286046998.3,N
1635720835.4,286047000.9,N
1635720855.2,286046998.5,N
1635720875.1,286046998.3,N
1635720876.0,286046998.3,N
1635720895.8,286046998.1,N
1635720915.6,286046998.7,N
1635720935.5,286047000.8,N
1635720955.3,286046999.8,N
1635720975.1,286047000.0,N
1635720995.9,286047002.7,N
1635721015.7,286047000.1,N
1635721035.5,286047001.7,N
1635721055.4,286047002.5,N
1635721075.2,286047000.1,N
1635721095.0,286047000.3,N
1635721095.9,286047000.3,N
1635721115.8,286047001.3,N
1635721135.6,286047001.9,N
1635721155.4,286047000.3,N
1635721175.3,286047002.5,N
1635721195.1,286046999.8,N
